Location: Newark
(60.6561°N, 46.5772°E)
Time: 08:50:04
(UTC+00:00)

S-56A Canister/Altair - Visible Passes

Search period start: 20 October 2019 00:00
Search period end: 30 October 2019 00:00
Orbit: 633 x 2499 km, 38.9° (Epoch: 18 October)

Date Brightness Start Highest point End Pass type
(mag) Time Alt. Az. Time Alt. Az. Time Alt. Az.
20 Oct 10.4 00:17:57 11° S 00:20:54 13° SSE 00:24:49 10° SE visible
20 Oct 10.4 02:17:34 10° SW 02:23:07 19° S 02:30:02 10° SE visible
20 Oct 10.4 23:47:06 11° SSE 23:48:22 11° SSE 23:50:34 10° SE visible
21 Oct 10.3 01:45:25 10° SSW 01:50:24 17° S 01:56:33 10° SE visible
22 Oct 10.2 01:13:40 11° SSW 01:17:45 16° S 01:23:04 10° SE visible
23 Oct 10.2 00:42:49 13° S 00:45:09 14° SSE 00:49:32 10° SE visible
23 Oct 10.5 02:43:19 10° SW 02:47:33 15° S 02:52:32 10° SSE visible
24 Oct 10.3 00:11:58 13° S 00:12:35 13° SSE 00:15:54 10° SE visible
24 Oct 10.4 02:11:05 10° SW 02:14:52 14° S 02:19:17 10° SSE visible
24 Oct 10.4 23:41:07 11° SSE 23:41:07 11° SSE 23:42:02 10° SSE visible
25 Oct 10.3 01:38:57 10° SSW 01:42:13 13° S 01:45:59 10° SSE visible
26 Oct 10.2 01:07:43 11° SSW 01:09:37 12° S 01:12:38 10° SSE visible
27 Oct 10.3 00:36:55 11° S 00:37:03 11° S 00:39:09 10° SSE visible
